This is the latest recevied weather packets stored in our database for station/object IZ1GCT. If no packets are shown the sender has not sent any weather packets the latest 1 day(s).
| Time | Temp. | Humidity | Pressure | Rain* | Wind** | Luminosity | Snow |
|---|---|---|---|---|---|---|---|
| 1778045452 | 11.11° C | 99% | 1011 hPa | 2.79 mm | - | - | - |
| 1778045151 | 11.11° C | 99% | 1011 hPa | 3.05 mm | - | - | - |
| 1778044251 | 11.11° C | 99% | 1011.1 hPa | 3.05 mm | - | - | - |
| 1778043653 | 11.11° C | 99% | 1011.2 hPa | 2.79 mm | - | - | - |
| 1778043351 | 11.11° C | 99% | 1011.2 hPa | 2.29 mm | - | - | - |
| 1778042750 | 11.11° C | 99% | 1011.1 hPa | 2.03 mm | - | - | - |
| 1778042453 | 11.11° C | 99% | 1011 hPa | 1.78 mm | - | - | - |
| 1778042151 | 11.11° C | 99% | 1011.2 hPa | 1.52 mm | - | - | - |
| 1778041552 | 11.11° C | 99% | 1011.3 hPa | 1.02 mm | - | - | - |
| 1778041252 | 11.11° C | 99% | 1011.2 hPa | 0.51 mm | - | - | - |
| 1778040951 | 11.11° C | 99% | 1011.3 hPa | 1.02 mm | - | - | - |
| 1778040651 | 11.11° C | 99% | 1011.2 hPa | 0.51 mm | - | - | - |
| 1778040352 | 11.11° C | 99% | 1011.2 hPa | 0.25 mm | - | - | - |
| 1778039756 | 11.11° C | 99% | 1011.2 hPa | 0.25 mm | - | - | - |
| 1778039156 | 11.11° C | 99% | 1011.3 hPa | 0.25 mm | - | - | - |
| 1778038557 | 11.11° C | 99% | 1011.4 hPa | 0.25 mm | - | - | - |
| 1778037957 | 11.11° C | 99% | 1011.4 hPa | 0.25 mm | - | - | - |
| 1778037656 | 11.11° C | 99% | 1011.5 hPa | 0.25 mm | - | - | - |
| 1778037057 | 11.11° C | 99% | 1011.7 hPa | 0 mm | - | - | - |
| 1778036756 | 11.11° C | 99% | 1011.8 hPa | 0 mm | - | - | - |
| 1778036456 | 11.11° C | 99% | 1011.9 hPa | 0 mm | - | - | - |
| 1778036157 | 11.11° C | 99% | 1012.1 hPa | 0 mm | - | - | - |
| 1778035556 | 11.11° C | 99% | 1012.3 hPa | 0 mm | - | - | - |
| 1778035255 | 11.11° C | 99% | 1012.2 hPa | 0 mm | - | - | - |
| 1778034956 | 11.11° C | 99% | 1012.2 hPa | 0 mm | - | - | - |
* Rain latest hour (hover to see other rain measurements)
** Current wind speed in m/s (hover to see current wind gust speed)